Zurück zum Katalog

STARLINK-31887

AktivKommunikationVLEO
NORAD 59839·PAYLOAD·🇺🇸 United States

Gestartet May 23, 2024 von Cape Canaveral Space Force Station

Loading…

Nächste Überflüge (nächste 24 Stunden)

TLE

AktuellSource: CelesTrak SupGP

Epoche: Sep 15, 2026, 01:46 UTC

1 59839C 24097E   26258.07409722  .00019756  00000+0  71548-3 0  2583
2 59839  43.0014 285.1699 0001232 262.1596 202.4824 15.27572161    17

Verfolge STARLINK-31887 in Echtzeit mit AllMySat

Download on the App Store